Theta_e
321 321 321 321 321 319 318 318 317 316 313 313 313 312 310 309 307 296 294 296 295 295 295 296 295 296 295 292 290 289 288 289 289 286 284 284 284 291 296 299 300 301 300 299 299 299 299 298 298 298 298 298 297 297 297 297 297 297 297 298 297 297 296 296 296 296 296 297 297 297 297 297 298 298
320 320 320 320 320 318 316 316 316 314 314 313 312 311 312 312 309 307 301 300 298 296 293 295 294 293 295 293 289 288 288 289 289 285 283 283 283 290 294 297 299 299 299 298 298 298 298 298 298 297 297 297 297 296 296 296 296 297 297 297 296 295 295 295 295 295 295 296 297 296 297 297 297 297
317 318 317 317 317 315 315 315 314 314 314 314 313 312 311 310 311 311 307 303 298 298 295 294 294 293 294 292 290 288 287 288 289 284 283 283 286 290 291 294 296 297 297 297 297 297 298 298 297 296 296 296 295 295 295 295 295 295 295 295 294 294 294 294 294 294 295 295 296 296 296 296 297 297
315 315 314 314 316 316 314 315 314 315 314 313 313 313 312 310 309 308 305 302 305 293 295 294 293 293 293 290 288 286 286 287 289 284 283 283 287 287 286 292 294 295 295 296 296 297 297 296 295 295 295 294 293 293 294 294 294 294 293 293 293 293 292 292 293 294 294 294 294 295 295 295 296 296
313 313 315 315 314 313 312 313 314 313 313 310 310 310 309 309 307 305 304 305 304 294 285 287 291 291 291 286 287 286 285 284 287 286 283 283 284 284 284 284 290 292 293 294 294 295 294 294 294 294 293 292 291 292 292 292 292 291 291 291 291 291 291 292 293 293 293 293 294 294 294 294 295 295
311 314 315 315 315 311 311 311 311 312 311 308 307 305 306 308 306 303 304 304 304 303 287 285 284 286 287 287 286 287 284 284 285 284 283 283 283 284 283 282 283 291 292 292 293 293 293 293 293 292 290 290 291 291 291 291 290 290 290 289 289 289 290 291 292 292 292 292 293 293 293 293 294 294
310 310 310 312 312 309 308 310 311 309 308 305 304 304 302 303 304 298 301 301 298 299 297 285 285 286 286 288 287 286 286 286 286 285 283 283 283 283 282 282 282 288 291 292 292 292 293 293 292 290 289 289 289 290 290 289 289 289 288 288 288 288 289 290 290 291 291 291 292 292 292 292 293 293
309 310 309 308 308 306 306 307 306 303 302 302 303 303 301 300 300 295 294 298 300 295 296 286 287 287 287 287 285 286 285 284 285 285 284 282 283 282 282 281 281 286 291 291 291 292 292 292 290 289 288 289 289 289 289 288 288 288 287 287 287 287 288 289 289 290 290 290 290 291 291 291 292 292
308 308 307 309 307 304 304 303 302 301 299 301 301 300 296 295 296 294 293 293 293 294 294 292 287 286 286 284 282 284 284 284 284 284 284 283 282 280 280 281 282 286 290 290 290 290 290 290 289 288 288 288 288 288 288 287 287 286 286 285 286 287 288 288 288 289 289 289 289 290 290 291 291 291
307 307 307 307 305 303 303 303 303 300 298 296 294 293 292 291 292 292 291 291 291 292 293 292 286 284 284 282 281 283 285 284 283 282 282 281 280 279 280 279 281 281 282 281 284 287 288 288 287 287 287 287 288 288 287 286 285 285 284 285 285 287 287 288 288 288 288 288 288 289 289 289 290 290
303 304 304 304 302 302 301 302 302 300 297 296 295 294 293 291 291 291 290 289 289 289 290 288 287 286 285 285 284 284 284 284 283 283 281 280 279 279 279 279 280 280 281 284 285 285 284 284 284 285 286 287 287 286 285 284 284 283 283 284 285 286 287 287 288 288 288 288 288 288 288 288 288 289
299 299 300 300 300 301 301 301 300 299 298 296 294 292 291 291 291 292 290 288 288 288 287 287 286 285 285 285 283 282 283 283 282 282 281 281 280 279 278 279 279 280 279 279 282 285 284 284 283 285 285 285 285 285 284 282 282 282 282 284 285 286 287 287 287 287 287 287 287 287 287 287 287 288
295 295 295 296 296 296 294 294 296 296 297 297 295 291 291 290 290 289 288 288 288 288 288 287 285 285 284 284 283 282 282 282 284 283 281 280 280 279 278 278 279 280 279 280 280 280 280 279 279 279 279 280 282 282 282 281 281 281 282 284 285 286 286 286 286 286 286 287 287 287 287 287 287 287
291 293 292 293 292 292 292 292 293 294 294 294 296 294 291 291 290 290 289 288 288 288 287 287 287 285 285 284 283 284 284 284 282 281 281 279 277 275 276 278 280 280 280 278 278 279 280 279 279 279 278 279 280 279 279 277 279 280 283 284 285 286 286 286 286 286 286 286 286 286 286 286 286 287
291 290 292 291 290 289 289 290 291 292 292 292 293 293 292 292 292 290 289 288 288 288 288 288 286 286 286 285 284 284 284 283 283 281 279 280 277 278 278 278 279 279 279 279 278 278 279 279 277 278 278 278 278 278 277 280 281 282 283 284 285 285 285 285 285 286 286 286 286 286 286 286 286 286
290 290 290 289 289 289 290 289 289 290 290 291 291 291 291 291 291 292 291 290 288 287 288 288 287 286 286 286 284 283 283 282 281 280 278 278 278 277 278 279 279 279 279 278 277 277 279 278 276 276 278 278 277 277 279 281 282 283 284 284 284 284 285 285 285 285 285 285 285 285 285 285 286 286
290 289 289 289 288 288 287 287 288 289 289 288 289 289 289 289 290 292 292 292 289 288 288 288 287 285 285 284 283 283 282 280 278 276 276 277 278 279 279 280 277 276 278 277 276 275 277 276 276 276 278 277 277 277 280 281 282 282 283 283 283 284 284 284 284 284 284 285 285 285 285 285 285 286
289 288 288 288 289 287 287 288 288 288 288 288 288 288 288 288 287 288 289 289 289 287 287 286 286 286 283 283 281 279 281 279 278 278 278 279 279 279 280 279 278 277 278 277 275 272 274 276 275 275 277 278 277 276 278 280 281 282 283 283 283 283 283 283 283 284 284 284 284 284 285 285 285 285
288 288 289 288 289 287 287 287 287 287 287 287 286 286 286 286 285 285 285 285 286 286 284 284 284 282 281 280 278 278 281 281 281 280 279 280 281 279 277 276 277 276 278 277 277 274 271 272 274 275 276 276 276 276 278 280 281 282 283 282 282 282 282 282 283 283 283 283 283 284 284 284 285 285
287 287 288 289 288 287 287 286 288 287 286 286 286 286 285 283 282 281 283 286 286 284 283 282 280 279 279 283 280 279 280 279 278 278 278 279 277 277 276 277 275 274 277 277 276 273 271 273 273 274 275 275 275 276 275 278 280 281 282 281 280 281 281 282 282 282 282 282 283 283 283 284 284 284
287 288 288 288 287 287 286 287 289 289 287 285 285 285 284 283 279 281 280 284 287 287 286 286 286 286 286 287 287 287 287 283 279 277 276 276 277 277 276 277 275 275 274 276 276 274 272 273 272 272 273 273 273 274 275 275 278 281 282 280 279 279 280 280 281 281 281 282 282 282 283 283 283 283
286 286 286 286 287 287 286 287 289 290 287 285 285 284 281 279 278 279 277 278 277 285 286 286 287 287 287 287 288 288 288 286 283 280 279 279 277 277 278 278 276 272 272 274 277 273 273 271 272 270 272 270 271 272 273 274 274 278 280 279 278 278 278 279 280 280 280 281 281 282 282 282 282 281
284 284 285 285 286 286 286 288 289 290 287 285 284 282 279 278 278 279 274 275 275 275 276 275 276 277 281 282 281 282 288 286 284 282 281 279 278 278 278 277 272 272 273 273 277 273 273 271 272 271 269 269 271 268 269 272 273 273 273 272 273 275 277 278 279 279 279 280 280 281 282 282 282 280
284 283 283 285 287 288 288 288 289 289 289 285 283 282 281 281 283 280 275 275 275 272 274 272 273 274 274 274 276 279 280 283 282 282 280 279 278 278 277 275 275 274 273 273 277 274 270 270 268 270 270 269 270 271 270 270 272 272 272 271 271 273 275 275 275 276 277 278 279 280 280 281 281 279
285 284 283 283 285 288 288 288 289 289 290 288 284 283 282 283 282 278 277 277 280 272 272 272 272 272 271 271 273 276 277 279 280 280 280 278 278 277 277 276 274 275 274 273 278 273 268 268 267 269 268 269 269 267 271 269 271 271 272 271 270 271 271 271 272 272 274 276 277 278 279 280 281 280
285 285 284 283 284 286 288 288 289 289 289 290 285 283 286 286 285 280 275 273 274 272 272 271 272 272 272 271 272 275 277 278 278 278 278 279 277 277 277 276 275 274 273 274 280 274 270 269 271 269 268 267 268 270 268 270 271 269 271 271 271 270 271 270 270 270 271 271 271 273 276 280 280 281
286 285 284 284 284 286 287 288 288 289 289 289 286 287 287 286 286 283 276 275 274 273 272 271 271 270 271 272 274 275 276 277 277 276 275 275 276 275 276 277 276 275 274 274 278 276 274 271 272 271 270 269 268 267 269 267 268 271 269 270 269 270 271 270 270 270 270 270 270 275 276 277 278 279
285 284 284 284 285 286 286 287 288 289 288 285 288 289 288 287 285 280 278 277 276 275 274 273 271 272 271 271 272 274 274 274 275 274 274 274 274 274 273 273 274 275 275 275 276 276 274 273 271 272 272 269 269 269 268 271 270 270 269 271 270 270 270 270 269 270 270 270 269 270 270 270 272 273
285 285 286 286 286 286 286 287 287 288 287 288 288 288 288 283 278 277 276 276 276 275 275 274 272 271 273 274 274 274 274 273 273 272 272 272 272 272 272 272 273 273 274 274 274 275 274 274 273 271 270 270 269 270 270 270 269 267 269 268 268 270 270 270 270 269 269 270 270 269 268 269 270 272
286 286 286 286 286 285 285 283 280 279 278 285 285 286 285 277 276 274 273 272 272 272 271 272 272 273 272 272 271 272 271 271 270 271 271 271 271 270 270 270 271 272 272 273 273 274 274 274 273 272 270 270 270 269 270 269 268 270 269 268 269 270 271 270 269 270 270 269 269 269 269 269 270 272
282 284 283 283 284 283 283 281 282 280 279 275 274 271 273 274 274 273 273 273 273 272 272 272 272 272 272 271 271 270 270 270 270 271 271 271 272 272 272 271 270 271 273 272 272 273 273 273 273 272 270 270 270 270 269 269 268 269 269 269 268 267 267 269 270 270 270 269 269 269 269 269 269 271
276 278 280 278 274 275 274 272 270 269 270 271 272 270 270 272 272 276 278 278 276 276 276 276 275 274 272 272 271 271 271 271 271 272 271 271 271 271 269 268 269 270 270 271 270 271 272 272 271 271 272 270 269 269 269 268 268 268 268 269 269 269 269 269 268 269 270 269 268 268 268 269 268 269
273 273 273 273 271 270 271 269 267 267 268 270 269 269 270 272 275 277 277 277 278 277 276 276 276 276 274 274 273 273 272 272 272 272 270 270 269 268 267 266 267 267 267 267 268 267 268 268 270 270 270 270 270 270 268 266 268 268 267 267 268 268 268 269 269 268 269 268 267 267 267 268 268 268
271 270 271 269 269 268 268 268 268 268 266 267 267 267 273 271 273 276 277 277 278 277 276 276 276 276 275 274 273 272 273 272 272 271 272 269 269 268 267 267 267 267 267 267 266 266 265 266 266 268 268 269 269 270 270 268 268 269 268 268 268 267 268 268 268 269 268 268 267 266 266 267 269 269
272 270 272 268 268 268 266 268 267 268 268 269 268 268 268 268 271 274 275 275 276 276 276 275 275 275 275 274 274 273 273 272 271 270 271 270 269 269 268 268 268 267 266 266 266 266 266 265 266 266 267 268 267 269 273 270 266 268 269 269 268 268 267 268 268 268 268 266 267 266 266 267 267 268
270 270 270 268 267 266 268 269 268 267 266 267 267 267 268 268 269 271 272 273 272 273 274 274 274 274 274 274 273 273 273 272 271 271 269 269 268 268 268 268 268 267 266 267 268 268 267 266 267 266 265 265 266 266 267 274 272 269 267 267 269 268 268 268 268 268 267 266 265 266 265 265 266 267
269 267 269 268 267 268 268 266 266 266 266 267 267 267 267 268 268 270 270 272 269 270 271 272 273 274 274 273 273 272 272 271 271 271 270 269 269 269 268 268 268 268 268 269 270 269 269 268 269 267 266 265 266 265 267 270 273 275 269 268 268 268 267 266 266 266 267 267 265 266 266 266 266 267
270 269 268 268 268 267 267 266 267 268 267 268 268 268 268 269 269 270 268 269 271 270 271 272 272 272 273 272 272 272 272 271 271 270 270 269 268 268 269 268 268 269 269 270 270 270 270 269 268 268 267 265 264 265 266 267 265 269 275 270 268 268 268 265 265 265 266 266 266 267 267 266 267 268
272 271 271 270 270 269 269 269 268 269 268 268 269 269 268 268 269 270 269 271 272 272 271 271 271 272 272 272 272 272 271 271 270 270 270 270 270 269 269 269 269 270 270 269 270 270 270 269 269 269 268 267 266 267 269 268 267 266 268 275 271 268 267 266 265 266 266 265 265 267 267 269 270 273
273 273 272 271 271 270 270 269 269 270 269 269 269 269 270 272 273 273 272 272 272 272 272 272 272 272 271 272 272 271 271 271 271 271 270 270 270 270 270 270 269 269 269 269 269 270 270 269 270 269 269 270 271 270 266 266 265 265 265 269 275 271 268 268 266 266 265 266 266 265 265 267 266 267
271 272 271 270 269 269 270 269 269 269 269 270 270 273 273 274 274 274 273 273 273 273 272 272 272 272 272 272 272 271 270 271 271 271 270 270 270 270 270 270 269 270 269 268 269 269 269 271 272 273 272 271 267 266 267 265 265 267 266 267 272 275 274 272 268 267 266 266 266 265 265 265 266 265
270 269 268 268 269 270 270 271 271 272 273 274 274 275 275 275 274 276 274 274 273 272 272 272 272 272 272 272 271 271 271 270 270 270 271 270 269 270 270 270 269 269 269 268 269 269 271 270 270 271 271 268 266 265 264 266 265 266 264 263 264 269 273 275 274 272 269 267 265 264 264 265 266 264
272 272 272 272 273 274 274 274 274 274 274 274 274 274 273 272 272 272 271 270 270 271 271 271 271 271 271 271 271 271 271 270 271 270 270 270 270 269 269 269 270 270 270 269 270 270 269 268 268 269 268 267 266 267 265 266 266 266 264 262 263 263 266 271 273 274 274 273 273 270 268 266 264 262
271 271 270 270 270 270 270 270 270 270 269 269 269 269 269 269 269 269 270 269 270 270 271 272 272 272 271 271 270 271 271 271 271 270 270 270 270 270 270 270 270 269 269 269 269 269 268 267 267 268 266 266 266 265 265 266 265 265 265 263 262 261 264 263 265 269 271 274 275 275 274 273 273 272
268 268 268 267 267 267 267 267 267 266 266 266 266 266 266 266 267 267 268 269 270 270 268 268 267 268 269 269 269 270 271 272 271 270 270 270 270 270 270 269 269 269 269 269 268 268 268 265 265 266 266 267 267 266 266 266 265 264 262 260 261 262 262 262 263 264 264 266 270 273 274 274 275 275
Wind_Speed
8 9 11 11 10 8 6 7 8 8 6 7 8 9 11 11 9 5 7 10 10 7 11 10 8 12 9 10 8 9 10 10 12 9 8 7 6 9 14 16 16 15 15 14 13 13 11 10 8 7 6 6 6 6 7 8 9 10 11 12 12 13 14 15 16 17 17 18 19 19 19 20 21 22
6 7 8 8 9 7 7 7 7 7 8 9 9 10 10 8 10 9 10 10 9 6 4 8 6 6 11 9 9 9 11 11 14 10 10 9 8 12 16 16 16 15 14 14 13 12 11 10 8 7 6 5 6 6 7 8 9 10 12 12 12 12 13 14 15 16 17 18 19 19 20 21 21 22
7 7 8 7 7 5 6 7 7 9 10 10 10 9 8 9 12 12 9 9 5 7 9 10 6 6 9 9 9 7 7 10 13 10 9 9 11 14 12 15 15 14 14 13 12 12 11 10 8 6 5 5 4 5 6 7 9 10 11 11 11 11 13 14 15 16 17 18 19 19 20 20 21 21
5 6 7 8 8 7 7 7 8 10 10 9 9 10 9 10 10 8 5 7 12 6 8 6 7 7 8 8 9 9 7 7 13 8 9 10 12 10 7 12 13 13 13 12 12 12 11 8 6 5 4 4 4 5 6 7 8 8 9 10 10 11 12 13 14 16 18 18 18 19 19 19 20 21
6 7 9 10 9 8 8 9 9 10 10 8 8 7 7 8 8 8 9 12 14 5 1 2 2 2 5 6 8 9 9 8 8 7 7 8 8 7 7 7 10 11 11 12 11 10 8 7 6 5 3 2 3 4 5 6 6 7 8 9 10 11 12 13 15 16 18 18 19 19 19 19 20 21
5 7 9 10 11 8 9 9 9 9 8 7 7 6 8 10 9 8 8 12 10 12 1 5 0 2 4 6 5 11 11 9 6 9 7 4 5 6 7 6 5 8 10 10 9 9 9 8 6 4 3 3 3 4 5 5 6 7 7 8 10 11 12 13 15 16 18 18 19 19 19 20 20 21
7 7 8 9 8 5 6 8 9 8 8 6 8 8 8 8 8 7 9 7 8 10 9 3 3 5 5 9 8 9 6 5 7 9 8 8 5 4 4 5 4 7 9 9 9 10 10 8 7 4 4 3 4 4 5 5 6 6 7 8 10 11 12 13 14 16 18 18 19 19 20 20 21 21
7 8 7 7 6 6 7 7 6 5 4 6 7 9 8 9 9 6 7 9 9 5 7 5 8 5 6 7 0 3 3 6 8 8 4 2 5 4 3 3 4 5 8 9 10 11 10 8 6 5 4 5 5 5 5 5 6 6 7 8 10 11 12 13 15 16 17 18 19 19 19 20 21 21
6 5 6 7 6 5 7 6 6 6 7 8 7 8 6 6 6 5 6 8 6 7 8 5 1 1 3 0 1 5 7 6 6 3 5 5 5 3 2 3 2 4 7 8 8 8 9 8 7 6 5 5 6 6 5 5 5 5 7 8 10 11 12 13 14 16 17 17 18 18 19 20 20 21
5 6 6 5 5 5 6 7 7 6 6 5 4 5 4 4 5 6 6 5 6 6 6 3 2 1 4 2 2 4 6 7 6 4 2 1 1 3 4 3 2 2 3 3 2 6 7 7 7 6 6 7 7 7 5 4 4 5 7 9 10 11 12 13 14 16 17 17 18 18 19 19 20 21
4 4 5 5 4 5 6 7 7 7 5 5 6 6 5 4 5 6 6 6 6 6 6 5 4 5 5 4 5 2 3 0 1 5 3 6 3 3 5 5 3 2 2 3 7 7 6 7 5 7 7 8 8 7 5 3 5 6 8 9 10 11 12 13 15 16 17 17 18 18 19 19 20 20
3 3 3 4 4 4 5 5 6 5 7 4 5 4 4 5 5 7 5 4 4 4 4 5 4 3 3 2 1 3 3 4 3 7 9 11 9 8 5 5 6 3 3 3 4 6 6 6 6 7 7 8 9 8 5 4 5 6 8 9 11 12 12 13 14 15 16 17 17 18 18 19 19 19
4 4 3 3 3 3 6 8 7 7 6 5 6 3 4 4 4 3 3 4 4 5 5 5 4 4 6 5 5 5 6 12 12 5 6 6 4 4 4 5 3 4 4 3 4 6 7 6 6 5 4 5 7 6 5 4 4 7 8 9 11 12 12 13 14 15 16 16 17 17 18 18 18 19
4 3 3 2 2 3 4 5 5 6 7 7 6 4 5 6 5 5 4 3 3 4 5 8 7 7 8 7 9 9 9 5 2 4 7 7 2 3 3 3 5 4 4 4 6 7 6 7 6 5 6 4 4 5 3 2 3 5 8 10 11 12 13 14 14 15 16 16 17 17 18 18 18 19
4 2 0 0 2 2 3 3 3 4 4 4 4 4 7 6 6 5 4 4 5 5 6 6 4 7 9 7 7 8 5 4 7 6 4 5 4 6 5 7 0 3 7 6 6 7 6 6 6 5 6 4 4 3 4 4 5 7 9 10 11 13 14 14 14 15 16 17 17 18 18 18 18 19
3 2 0 1 1 0 1 1 1 1 2 1 1 1 3 4 5 4 5 5 4 5 7 6 7 6 8 6 4 5 5 7 6 5 5 6 7 7 7 6 6 3 7 6 5 7 3 4 4 6 6 3 4 4 4 5 6 8 9 10 11 13 14 14 15 15 16 17 17 17 18 18 18 18
1 1 1 1 1 2 3 2 1 1 1 3 3 2 2 4 6 6 5 3 2 2 6 7 7 7 5 5 6 5 3 2 5 3 5 5 6 6 7 8 3 3 6 4 5 5 2 5 5 6 4 3 3 3 3 5 7 8 9 9 11 13 14 14 15 15 16 17 17 17 18 17 17 18
2 2 3 2 1 0 1 1 2 2 2 2 2 1 2 3 3 4 4 6 6 4 4 4 6 3 3 6 3 3 5 5 7 7 8 6 7 8 9 2 3 3 6 7 4 3 3 3 3 6 4 3 3 3 4 6 7 9 9 9 10 11 12 14 14 15 16 16 17 17 17 17 17 17
4 4 4 4 4 3 3 3 3 3 2 2 1 1 2 2 1 1 1 3 3 3 3 5 6 4 3 5 4 3 5 9 6 6 5 6 6 2 3 1 2 1 5 3 3 6 0 0 2 4 3 3 4 4 6 8 8 9 9 8 9 10 11 13 14 14 15 16 16 17 17 17 17 17
3 4 5 4 4 3 3 3 5 4 4 2 2 2 3 3 1 0 1 1 2 3 4 4 4 4 3 5 4 4 6 3 3 5 5 5 4 4 3 8 3 4 2 5 3 2 2 2 4 3 1 2 4 4 4 7 9 10 9 7 7 8 10 12 13 14 15 15 16 16 17 17 17 17
4 4 4 4 4 4 4 6 7 7 6 2 2 2 3 3 2 4 1 3 0 3 4 4 5 6 7 7 7 8 8 7 6 6 4 4 4 4 6 7 4 4 4 3 4 1 4 3 4 4 2 2 4 4 2 2 7 10 12 9 6 8 9 11 12 13 14 15 15 16 16 17 16 18
2 2 5 5 4 5 4 6 6 7 6 3 2 2 2 3 4 5 1 0 1 2 3 3 4 5 6 6 7 8 9 10 8 7 8 4 6 7 7 7 1 1 2 3 5 2 5 0 0 1 3 2 3 2 0 1 3 8 6 6 6 8 9 10 12 13 13 14 15 15 17 16 16 9
2 3 4 7 6 4 3 5 5 7 6 3 3 3 1 3 5 4 2 3 3 2 0 0 1 0 1 0 1 2 8 11 9 6 3 4 6 7 5 4 3 5 3 4 8 5 2 3 2 3 3 4 2 2 1 0 1 1 1 1 3 7 9 10 10 12 13 13 14 15 16 16 14 6
2 3 3 4 5 5 5 5 6 7 8 5 3 4 4 4 6 2 4 4 4 3 3 2 0 0 1 2 1 0 2 4 5 5 0 2 4 5 4 2 4 5 3 2 8 6 1 1 2 0 4 2 4 1 0 2 2 3 3 3 3 4 6 7 7 10 11 12 14 14 14 14 14 6
3 3 3 2 4 6 6 6 7 7 9 7 5 5 6 6 2 5 3 3 4 3 1 1 1 1 1 1 0 1 3 3 3 3 1 2 2 4 5 5 5 6 4 2 9 3 3 1 3 1 3 2 2 2 2 1 2 2 3 3 4 3 1 3 3 4 6 11 12 14 13 14 15 11
3 3 3 4 5 7 7 7 8 8 8 9 5 6 8 5 5 3 2 3 4 2 2 1 1 1 1 2 3 4 3 3 1 1 2 2 2 2 2 3 5 5 4 1 11 7 3 3 6 3 2 2 5 2 4 4 2 3 1 1 2 2 2 4 4 4 3 3 5 7 10 15 13 12
5 4 4 4 6 8 7 8 8 8 9 7 5 8 8 7 6 5 4 4 3 3 2 1 2 3 2 3 4 4 4 2 2 2 0 1 1 1 1 1 1 3 2 2 5 6 6 4 2 7 6 2 3 3 3 5 4 1 1 2 2 3 3 3 5 4 3 3 4 11 12 12 11 11
4 4 4 4 6 7 6 7 7 7 6 4 6 7 7 7 6 4 3 3 3 2 2 1 2 4 3 3 3 4 2 2 3 2 1 1 1 2 2 2 3 3 2 3 4 6 6 7 4 4 3 4 5 6 6 3 1 2 4 1 2 4 4 4 4 4 3 3 3 4 4 6 6 6
4 4 6 6 6 6 5 4 4 3 4 5 5 4 5 5 3 3 3 3 2 2 3 4 3 3 3 4 3 1 0 0 1 0 0 0 1 1 1 2 2 4 4 3 3 5 6 7 7 3 3 3 5 6 4 7 1 3 2 2 5 1 1 3 4 4 4 3 3 4 4 4 5 5
6 6 6 6 5 4 2 1 1 0 0 2 2 1 2 2 3 3 3 2 2 3 3 3 4 4 2 2 2 1 1 1 3 1 1 1 4 1 2 3 5 4 4 4 4 4 5 6 6 4 4 5 6 8 7 6 8 7 4 5 6 6 5 4 5 3 3 3 4 4 5 4 5 5
4 4 3 4 5 5 6 5 5 5 3 3 3 3 2 1 2 3 3 5 4 3 3 3 3 3 2 0 1 0 0 2 2 2 2 2 4 2 2 3 5 5 5 4 5 5 5 5 5 5 7 8 6 8 6 5 9 9 6 3 3 7 2 0 2 2 2 3 3 4 4 4 4 4
4 5 5 6 4 5 5 4 4 4 3 3 3 2 2 2 3 3 3 3 1 1 1 2 2 1 0 0 1 1 1 2 2 1 2 2 3 1 1 1 5 4 4 3 4 5 5 6 5 6 7 7 9 8 3 4 8 8 8 4 5 7 6 6 6 5 3 3 4 5 4 4 4 5
4 5 5 5 4 4 3 3 2 2 2 2 2 2 2 2 3 3 3 2 3 4 3 3 3 4 2 3 2 2 2 3 3 2 2 3 3 2 2 5 5 5 6 5 3 4 4 5 5 6 7 7 7 6 4 7 9 6 6 7 5 8 7 5 5 6 4 3 5 4 5 4 3 4
5 4 5 3 5 3 4 2 1 1 1 1 1 2 2 2 2 2 3 3 3 2 2 3 3 3 2 3 3 3 3 3 2 3 4 3 2 2 4 5 6 5 5 6 5 5 3 4 3 4 4 4 4 7 7 9 11 6 5 6 7 9 7 3 4 5 4 4 3 6 5 5 4 2
5 4 6 3 3 3 3 2 1 1 1 0 0 0 0 0 1 2 3 3 2 2 3 3 3 3 3 3 3 3 3 3 3 3 2 2 3 4 5 5 6 5 4 5 5 4 2 2 2 3 3 4 5 9 14 14 10 12 7 8 7 8 7 4 3 4 4 3 2 3 6 4 5 3
4 6 6 6 4 4 3 1 2 2 2 2 2 1 0 1 1 2 3 2 3 3 3 3 3 3 3 4 3 3 3 3 4 4 3 3 4 4 4 6 6 6 4 5 6 5 2 3 4 4 6 7 6 9 8 18 22 11 9 9 6 6 6 3 3 4 4 4 2 3 5 6 5 5
5 4 6 6 4 5 4 3 5 3 3 3 3 3 3 2 2 3 2 0 1 3 4 3 4 3 4 4 3 3 3 3 4 4 4 4 4 4 5 6 6 6 6 6 5 5 3 4 4 4 6 7 8 10 10 2 18 19 8 9 7 4 4 3 3 4 5 4 4 4 5 4 6 5
6 5 5 5 5 5 3 3 3 2 3 3 3 2 3 3 2 2 0 1 3 3 4 4 4 4 4 3 3 4 4 4 4 4 4 4 4 5 6 6 6 5 6 6 4 5 4 5 5 6 6 9 10 7 10 3 1 6 14 9 7 5 3 4 4 6 5 4 5 4 3 5 5 5
5 5 5 5 4 4 3 4 4 4 3 2 2 2 2 2 2 1 1 3 2 3 3 3 4 4 4 4 4 4 4 4 4 5 4 5 5 5 6 6 6 6 5 6 4 4 4 6 6 6 7 7 8 9 8 7 5 2 5 10 8 4 5 6 6 4 5 5 4 2 4 5 5 10
4 5 5 5 4 4 3 3 4 4 3 3 3 2 2 2 2 3 2 3 3 3 3 4 4 3 3 4 4 4 4 5 6 5 4 5 5 5 5 5 6 6 5 7 5 5 4 6 7 7 7 8 9 5 2 3 3 2 4 6 13 12 8 6 6 5 5 4 2 2 3 2 2 1
5 5 4 4 3 3 3 4 4 3 3 2 2 2 2 3 3 3 3 3 3 3 3 3 3 3 4 4 4 4 5 5 4 5 5 5 5 5 7 7 6 5 6 7 6 6 6 6 7 11 10 7 1 3 3 5 8 7 5 6 8 15 16 11 7 5 4 3 4 4 3 3 2 2
5 5 3 3 4 3 3 3 3 2 1 2 2 2 2 2 3 3 2 2 2 2 2 3 3 3 3 4 4 4 5 6 5 5 5 5 5 5 6 5 6 5 6 7 7 7 5 1 3 4 5 2 2 4 9 8 8 7 3 3 4 5 9 14 15 11 7 5 4 2 2 2 1 2
6 6 5 4 3 3 3 3 4 4 4 4 4 3 2 1 0 0 0 0 1 1 2 2 3 4 4 4 4 4 4 5 5 5 4 4 4 5 5 6 6 7 7 7 6 5 4 2 2 3 3 4 5 6 9 8 7 6 3 2 2 1 3 5 8 12 15 15 13 8 5 4 2 2
6 5 4 3 4 4 3 4 4 4 4 4 4 3 3 2 2 3 2 2 2 2 2 2 2 3 3 3 3 3 4 5 5 4 4 5 6 6 6 6 6 6 6 6 6 5 3 3 3 4 4 5 5 5 8 7 7 5 5 3 1 0 2 2 3 4 6 9 14 17 16 14 10 8
5 5 5 4 4 4 4 4 4 4 4 4 4 2 3 3 2 3 3 4 4 4 4 4 3 3 4 4 4 4 4 5 5 5 5 5 4 5 5 5 6 6 6 5 5 5 4 3 2 2 4 5 5 6 7 6 6 3 3 1 4 2 1 1 1 4 4 5 5 6 9 10 12 13
Wind_Direction
245 247 242 239 237 229 218 220 226 227 215 213 211 202 208 211 229 202 221 235 239 232 206 221 221 199 194 194 189 186 200 191 181 179 183 191 201 214 210 214 217 218 215 216 218 222 227 230 233 244 255 264 279 295 302 309 311 312 314 318 324 327 326 323 321 321 322 323 322 322 322 321 321 320
236 239 247 248 245 227 203 206 208 211 210 216 211 214 215 205 217 222 220 243 215 239 235 222 228 182 197 191 189 194 199 192 183 179 179 185 197 208 210 214 218 219 217 215 218 223 229 233 235 244 258 265 279 297 307 311 313 315 313 319 325 327 322 320 320 318 319 320 320 320 320 319 320 320
220 226 233 228 236 221 220 210 212 219 218 220 217 217 210 207 217 226 225 246 245 188 220 228 213 177 197 190 191 197 205 196 188 182 181 186 194 202 209 213 218 218 216 215 218 225 232 233 237 248 260 272 287 297 309 312 314 317 315 320 323 321 318 317 316 314 316 318 318 318 318 318 319 320
224 234 240 233 228 213 204 215 224 228 227 223 220 221 213 214 220 227 237 239 254 205 219 220 210 186 180 179 186 201 204 205 195 188 190 190 188 199 203 212 214 216 216 218 221 226 230 232 240 252 264 278 290 302 305 308 316 320 316 318 317 318 314 311 312 314 315 316 316 317 318 318 319 319
231 235 242 243 236 224 218 219 222 224 225 215 217 220 217 219 205 185 203 232 249 261 238 287 268 224 153 191 202 194 198 192 199 197 202 189 188 188 197 204 213 213 217 220 223 227 232 236 239 239 250 266 280 286 292 302 313 316 315 317 315 311 308 309 313 314 314 314 314 315 316 318 318 318
248 244 244 244 240 218 219 227 229 231 228 214 214 203 215 224 217 207 204 228 232 245 145 244 290 160 185 204 197 203 191 200 188 200 204 210 198 194 194 196 204 213 214 218 221 226 231 232 229 217 201 236 257 268 282 297 301 303 310 310 308 306 306 308 312 314 313 313 314 314 316 317 318 318
239 241 240 244 242 233 230 234 238 234 230 213 207 206 203 218 223 205 211 214 230 237 238 165 198 203 196 210 202 212 207 194 193 198 204 199 197 216 196 188 190 213 209 215 220 227 229 225 215 185 204 222 237 255 271 283 292 298 305 306 304 303 303 306 311 311 311 312 313 314 316 317 318 319
235 235 241 246 245 239 238 244 248 252 243 214 208 210 209 211 218 196 199 217 227 227 240 228 204 197 185 232 183 168 160 182 197 210 198 186 209 211 201 187 193 209 207 214 222 227 224 215 189 195 209 221 232 246 262 276 287 296 301 301 300 300 301 305 310 310 310 310 311 313 315 316 318 320
251 251 242 251 249 232 234 249 244 234 223 224 222 225 211 200 207 186 191 214 211 215 227 242 214 116 232 348 154 176 180 199 203 198 202 205 214 214 228 206 199 195 202 213 217 216 212 198 199 207 212 221 229 239 248 268 282 291 297 296 294 295 298 303 307 308 308 309 310 312 315 317 318 319
240 241 246 247 242 222 222 234 237 232 232 235 242 240 216 201 178 197 207 201 208 216 237 225 238 277 222 258 235 200 208 186 190 198 229 326 257 205 232 236 187 170 157 146 200 207 205 201 206 208 215 221 224 227 236 257 276 285 287 287 286 289 294 301 305 306 307 308 310 313 315 316 317 318
255 249 249 254 247 226 221 230 234 234 233 218 226 216 206 186 178 201 201 187 196 211 231 232 196 202 226 211 238 168 168 20 179 196 172 249 226 224 213 219 203 164 189 209 207 207 202 207 203 217 215 215 217 220 227 238 264 276 278 277 281 286 294 302 305 306 307 308 310 312 314 315 316 316
257 254 248 246 234 221 225 220 233 214 226 217 231 208 176 175 184 202 183 169 170 184 207 220 221 211 207 233 87 50 137 201 231 198 190 210 212 215 208 213 197 190 176 210 215 209 197 204 220 218 217 216 217 222 216 223 254 271 273 275 280 289 299 303 304 304 306 307 308 310 311 312 313 314
237 233 228 227 225 210 218 218 220 220 219 204 228 209 161 164 181 175 164 186 191 216 219 240 222 214 216 214 175 182 182 201 217 184 173 225 214 179 203 235 211 186 187 198 203 217 202 216 223 196 212 218 215 216 211 212 253 271 271 273 281 292 299 300 300 302 303 304 305 307 308 308 309 310
228 217 212 213 189 181 195 202 210 217 213 205 208 190 173 178 182 196 193 194 200 200 214 227 217 223 230 212 204 212 216 202 71 155 182 213 186 101 216 275 220 184 183 186 225 229 206 205 231 207 231 211 205 193 181 185 217 255 268 277 285 293 297 297 298 299 300 300 303 304 305 306 307 308
270 266 183 110 127 144 168 183 195 208 212 212 212 171 190 189 182 183 197 219 196 211 227 237 224 232 241 228 208 221 209 175 202 205 184 193 149 196 194 235 311 182 173 201 218 240 194 190 226 236 239 223 207 209 204 232 268 271 274 279 288 296 295 295 296 297 297 299 301 303 304 305 307 308
283 284 326 38 68 107 128 135 123 112 118 154 170 146 187 213 233 219 192 205 201 213 230 236 231 231 237 242 204 221 188 214 196 205 178 188 192 197 212 226 226 187 180 189 201 244 176 185 219 251 246 211 217 214 214 254 272 275 275 282 291 293 292 292 294 295 297 299 301 303 304 305 306 307
275 358 5 359 19 43 72 95 112 125 115 90 91 116 171 219 229 248 265 257 223 202 230 236 242 218 232 242 239 210 207 126 193 176 200 207 204 206 213 224 197 217 198 174 210 240 214 169 212 243 247 189 198 217 239 267 279 273 274 281 287 287 288 291 293 295 299 301 303 303 305 305 305 307
178 186 185 189 259 81 108 133 145 139 137 136 136 163 200 221 230 232 247 260 266 214 219 230 246 243 180 241 235 196 163 159 198 189 219 196 207 212 220 187 191 169 183 193 150 281 233 189 199 248 268 139 199 184 216 252 263 262 262 277 285 286 288 292 295 298 302 303 303 303 304 304 305 306
181 185 183 174 183 179 188 184 165 152 154 149 150 185 223 226 238 213 225 234 238 222 197 222 244 251 212 236 230 200 192 206 209 195 203 194 203 145 57 305 183 177 196 211 154 244 24 284 179 242 187 171 196 195 223 244 255 247 243 266 285 289 293 296 299 301 304 305 305 303 304 305 305 305
176 176 176 170 175 183 185 176 171 169 157 155 183 251 273 286 310 304 122 163 181 182 199 207 211 212 210 217 219 202 199 181 106 83 68 76 96 140 192 238 191 219 195 187 196 251 271 202 189 237 188 164 228 218 181 231 247 239 229 256 285 297 300 301 303 305 308 307 306 304 303 304 304 305
173 177 169 160 173 180 186 179 182 177 156 154 180 227 269 289 320 288 320 0 45 200 201 208 212 220 222 224 217 207 193 158 135 104 108 192 165 168 226 249 218 245 151 226 202 310 284 198 190 266 264 240 268 258 202 167 235 236 221 241 288 305 308 304 304 307 309 309 306 305 304 304 305 307
152 157 164 177 190 196 195 176 180 177 159 174 186 199 258 295 292 283 272 51 3 35 125 153 182 196 211 212 207 205 187 162 157 152 208 197 158 219 221 252 245 323 212 221 165 146 237 34 123 284 277 314 252 262 276 182 226 233 229 246 283 311 308 303 303 306 308 308 306 305 307 307 307 309
156 184 195 202 202 197 178 182 184 180 163 177 180 180 163 253 268 254 171 183 204 237 204 301 39 20 359 215 176 209 185 175 193 209 234 127 184 224 241 262 343 317 263 207 173 192 254 124 255 141 339 311 259 135 269 268 126 151 148 240 290 293 297 299 305 305 310 311 309 308 309 309 310 307
197 198 211 218 214 209 203 195 191 190 178 179 166 139 185 218 260 177 171 189 187 210 202 233 137 168 16 39 42 51 178 199 207 225 212 161 196 227 251 215 189 229 246 242 183 199 310 143 252 122 202 173 278 291 265 284 179 188 173 189 236 268 294 306 308 309 314 314 312 312 313 310 311 306
185 207 219 223 216 214 214 207 203 198 198 181 167 180 203 212 166 132 123 189 177 184 179 154 120 88 56 50 24 255 237 222 218 224 153 140 174 201 231 231 217 248 241 222 193 191 238 162 213 174 289 252 273 334 276 160 271 201 195 182 198 266 260 282 279 286 306 313 315 318 319 313 311 312
199 203 195 213 211 209 214 214 208 208 209 197 182 207 213 205 177 138 140 141 146 148 149 132 131 163 190 216 245 248 248 249 240 202 216 183 195 227 224 215 244 268 287 254 191 201 163 275 190 179 222 186 279 223 281 285 218 202 260 173 197 229 252 273 285 279 290 300 305 309 309 314 314 315
204 191 196 201 192 198 206 212 214 216 212 203 205 214 213 206 196 145 129 137 136 142 131 142 226 248 230 249 258 262 270 257 226 239 212 311 308 297 308 314 277 249 278 172 208 202 213 263 174 199 226 211 246 313 258 264 299 73 291 217 216 248 236 248 264 271 282 297 297 309 318 315 320 326
181 181 189 191 192 195 205 210 219 221 212 202 218 220 212 191 181 138 141 137 149 137 138 191 251 261 250 241 273 265 262 250 235 231 194 219 233 238 264 267 258 247 221 201 207 205 206 232 242 240 242 201 238 251 268 288 239 221 259 288 178 210 233 230 252 262 278 289 300 307 314 317 313 323
183 182 177 183 190 202 205 202 217 223 224 224 224 226 208 179 155 154 161 160 129 173 229 239 253 261 251 229 239 269 177 141 95 96 358 119 240 224 242 255 256 257 254 229 217 217 210 222 239 201 215 213 230 257 251 269 307 262 253 341 292 214 201 234 229 250 276 289 286 295 291 286 298 304
167 171 170 175 183 182 162 110 102 107 40 44 18 300 217 149 158 150 148 138 161 223 239 235 248 255 260 264 245 194 134 152 237 186 240 235 283 244 273 296 274 251 244 240 234 230 228 232 234 214 226 235 228 256 256 272 278 274 227 223 271 307 258 215 242 248 254 281 281 288 289 268 268 280
161 152 145 129 121 105 103 94 91 79 58 52 34 38 50 109 138 153 168 182 194 220 227 247 256 260 245 160 88 73 151 241 263 180 221 245 263 213 250 241 277 271 251 214 224 225 232 234 228 201 230 245 243 240 248 264 272 271 261 223 165 247 262 105 221 219 258 271 280 280 283 291 288 262
140 113 96 79 72 77 64 54 46 41 54 69 55 41 35 68 112 122 119 107 140 195 183 216 216 262 114 259 227 182 194 241 254 174 193 220 267 233 131 302 265 266 271 222 224 229 217 225 221 232 233 232 245 261 268 233 250 257 275 248 230 258 257 265 270 276 254 263 284 284 281 277 287 292
92 94 88 95 67 65 90 65 47 18 28 27 50 55 36 52 106 125 139 180 223 212 204 240 248 258 233 250 210 198 221 247 238 200 212 254 228 278 167 228 267 281 289 286 246 238 221 226 232 231 235 254 255 259 244 263 258 245 248 260 256 262 255 236 250 258 271 265 274 283 288 286 248 268
114 113 123 123 129 112 107 107 100 54 63 35 8 0 47 87 114 149 176 202 225 202 204 220 227 253 236 259 229 223 241 261 236 209 204 248 213 195 245 259 264 260 262 270 271 263 237 228 226 262 264 256 260 237 226 246 263 253 224 246 240 257 255 196 229 239 233 231 249 285 291 293 293 267
133 141 141 145 120 125 121 130 160 149 130 158 184 287 299 219 178 192 197 220 206 214 221 230 233 238 236 254 251 243 252 252 257 232 238 203 218 233 248 260 274 269 262 275 275 262 220 215 164 257 262 250 251 257 218 206 208 251 253 241 237 246 264 234 212 233 230 231 213 259 278 280 287 291
146 144 143 143 148 138 137 188 173 173 175 191 186 189 290 281 210 192 231 223 187 220 219 229 239 238 241 246 249 247 252 250 255 244 237 220 229 248 248 249 258 266 260 259 267 269 218 219 185 225 256 260 273 285 291 201 201 218 226 255 241 230 250 224 213 222 220 225 207 204 248 280 287 294
146 144 140 147 156 158 174 194 187 199 191 185 192 181 193 228 239 206 235 157 178 213 216 217 234 236 240 240 244 240 245 242 256 248 242 238 235 240 250 262 254 256 265 260 250 260 218 227 214 214 229 267 267 266 273 106 209 209 185 232 251 223 210 215 214 234 223 189 218 215 239 267 278 287
148 149 143 152 160 178 179 186 196 201 204 200 196 200 211 227 256 263 166 160 220 217 226 220 237 236 240 232 226 246 238 236 240 248 246 236 235 249 246 255 264 258 258 266 243 242 226 216 218 221 225 215 252 261 285 269 57 238 221 206 235 235 151 176 221 226 223 196 207 227 212 245 260 269
143 155 158 159 168 158 185 209 192 207 205 188 188 204 220 241 244 261 185 221 223 227 227 226 238 234 235 241 239 234 241 244 239 238 235 236 234 244 255 258 267 271 269 270 256 238 214 226 222 224 217 232 239 255 260 287 268 277 308 242 215 216 214 196 223 224 207 209 230 224 238 238 266 273
152 148 157 150 165 178 199 192 198 203 184 192 194 196 184 230 225 219 221 222 220 232 219 237 250 250 247 243 242 245 247 236 241 248 244 242 240 240 247 251 261 269 272 272 269 257 232 227 231 223 228 233 245 262 219 242 251 257 273 281 230 208 212 195 215 203 222 215 175 201 260 292 279 293
133 140 153 137 135 168 182 202 200 178 190 182 191 203 203 211 226 235 223 224 211 211 223 236 234 236 246 245 241 234 242 252 240 238 239 244 248 241 247 256 259 257 262 270 267 261 249 245 235 241 237 237 188 58 287 289 273 258 240 243 244 230 222 210 200 191 204 172 176 198 223 233 251 321
131 124 127 129 138 187 186 189 184 167 158 161 169 199 209 209 208 230 223 244 238 237 235 239 242 242 247 240 241 238 244 247 246 249 247 243 251 259 258 252 257 262 259 263 261 261 269 244 231 233 237 161 121 200 237 250 263 273 252 271 292 282 252 238 226 212 195 162 143 163 202 263 268 258
110 110 108 111 98 94 82 67 52 56 45 43 41 23 37 344 315 10 126 259 257 256 249 248 249 237 243 240 239 241 246 258 257 259 259 258 257 262 260 250 249 252 254 261 268 275 270 236 215 222 212 186 219 221 246 251 261 268 265 282 270 326 298 280 275 252 231 214 211 209 189 178 150 235
94 90 83 78 81 77 70 66 62 49 52 43 37 31 32 35 17 354 4 351 336 310 304 296 288 275 273 269 264 253 249 252 258 262 259 259 255 256 260 269 271 270 267 271 275 271 257 235 229 200 202 225 222 213 248 262 263 263 255 232 257 235 262 330 336 309 292 258 236 228 224 219 219 227
96 99 96 84 85 77 74 65 66 59 57 53 49 45 37 36 30 18 12 12 15 359 349 328 317 300 293 277 264 257 253 259 255 243 251 257 264 265 266 269 269 268 265 263 269 279 265 234 230 206 234 239 229 230 245 250 260 269 246 221 254 235 246 9 300 269 270 275 280 270 263 257 257 264